{"data":{"norad_id":51956,"epoch":"2026-05-24T22:50:18.581280Z","epoch_age_seconds":79525,"freshness":"FRESH","line1":"1 51956U 22025A   26144.95160395 -.00001613  00000+0 -40210-4 0  9995","line2":"2 51956  53.1610  18.9558 0001308  94.1422 265.9729 15.31697905232850","mean_motion":15.31697905,"eccentricity":0.0001308,"inclination_deg":53.161,"raan_deg":18.9558,"arg_perigee_deg":94.1422,"mean_anomaly_deg":265.9729,"bstar":-4.021e-5,"rev_number":23285,"period_min":94.013316548866,"perigee_km":469.85040639092,"apogee_km":471.64207424658,"semimajor_km":6848.8832403188,"source":"CELESTRAK","updated_at":"2026-05-25T13:38:16.990491Z"}}